Tracking 30102 objects as of 12-Dec-2024
HD Live streaming from Space Station
objects crossing your sky now

STARLINK-5450

Track STARLINK-5450 now!
10-day predictions
STARLINK-5450 is classified as:


NORAD ID: 54778
Int'l Code: 2022-175W
Perigee: 545.7 km
Apogee: 548.1 km
Inclination: 53.2 °
Period: 95.4 minutes
Semi major axis: 6917 km
RCS: Unknown
Launch date: December 17, 2022
Source: United States (US)
Launch site: AIR FORCE EASTERN TEST RANGE (AFETR)
Your satellite tracking list
Your tracking list is empty




NASA's NSSDC Master Catalog

Two Line Element Set (TLE):
1 54778U 22175W   24347.03833046  .00001568  00000-0  11656-3 0  9997
2 54778  53.2178 261.2133 0001695  91.9127 268.2059 15.08841425111796
Source of the keplerian elements: AFSPC